Powrót do katalogu

STARLINK-36874

AktywnyŁącznośćSSO
NORAD 67981·PAYLOAD·🇺🇸 United States

Wystrzelony Feb 25, 2026 z Vandenberg Space Force Base

Loading…

Następne Przeloty (najbliższe 24 godziny)

TLE

ŚwieżeSource: CelesTrak SupGP

Epoka: Sep 14, 2026, 21:11 UTC

1 67981C 26038W   26257.88312500  .00064338  00000+0  19976-2 0  2573
2 67981  97.2843 266.3651 0001593 101.0990   4.6386 15.33400199    16

Śledź STARLINK-36874 w czasie rzeczywistym z AllMySat

Download on the App Store